Weather History for Hanford, WA

Change the Weather History Date:

Wednesday, February 13, 2013

  Actual Average Record
Temperature  
Mean Temperature 46 °F -  
Max Temperature 51 °F 45 °F 57 °F (1997)
Min Temperature 39 °F 28 °F 19 °F (2004)
Degree Days  
Heating Degree Days 18    
Moisture  
Dew Point 32 °F    
Average Humidity 55    
Maximum Humidity 70    
Minimum Humidity 43    
Precipitation  
Precipitation 0.00 in - - ()
Sea Level Pressure  
Sea Level Pressure 30.26 in    
Wind  
Wind Speed 13 mph (WNW)    
Max Wind Speed 20 mph    
Max Gust Speed 28 mph    
Visibility 15 miles    
Events      
Averages and records for this station are not official NWS values.
T = Trace of Precipitation, MM = Missing Value Source: NWS Daily Summary

Daily Weather History Graph

Daily Weather History Graph

Search for Another Location

Airport:

Trip Planner

Search our weather history database for the weather conditions in past years. The results will help you decide how hot, cold, wet, or windy it might be!

Date:

Astronomy

Feb. 13, 2013 Rise Set
Actual Time 7:04 AM PST 5:21 PM PST
Civil Twilight 6:33 AM PST 5:52 PM PST
Nautical Twilight 5:58 AM PST 6:27 PM PST
Astronomical Twilight 5:23 AM PST 7:02 PM PST
Moon 8:19 AM PST (2/13) 9:48 PM PST (2/13)
Length of Visible Light 11h 18m
Length of Day
10h 16m
Waxing Crescent, 14% of the Moon is Illuminated
Feb 13
Waxing Crescent
Feb 17
First Quarter
Feb 25
Full
Mar 4
Last Quarter
Mar 11
New

Hourly Weather History & Observations

Time (PST) Temp. Windchill Dew Point Humidity Pressure Visibility Wind Dir Wind Speed Gust Speed Precip Events Conditions
12:50 AM 47.3 °F - 35.8 °F 64% 30.19 in 15.0 mi West 11.5 mph - N/A   Mostly Cloudy
1:50 AM 49.5 °F - 36.3 °F 61% 30.18 in 15.0 mi SW 19.6 mph 27.6 mph N/A   Scattered Clouds
2:50 AM 48.0 °F - 35.4 °F 62% 30.19 in 15.0 mi West 10.4 mph - N/A   Mostly Cloudy
3:50 AM 48.6 °F - 35.4 °F 60% 30.19 in 15.0 mi WSW 18.4 mph 26.5 mph N/A   Overcast
4:50 AM 46.4 °F 39.8 °F 34.7 °F 64% 30.19 in 15.0 mi WSW 16.1 mph - N/A   Overcast
5:50 AM 46.0 °F 41.9 °F 34.0 °F 63% 30.22 in 15.0 mi WSW 8.1 mph - N/A   Overcast
6:50 AM 45.0 °F 39.3 °F 33.1 °F 63% 30.22 in 15.0 mi West 11.5 mph - N/A   Overcast
7:50 AM 42.8 °F 38.0 °F 33.6 °F 70% 30.24 in 15.0 mi NW 8.1 mph - N/A   Mostly Cloudy
8:50 AM 46.9 °F - 33.3 °F 59% 30.25 in 15.0 mi NNE 8.1 mph - N/A   Overcast
9:50 AM 48.4 °F - 33.3 °F 56% 30.29 in 15.0 mi West 11.5 mph - N/A   Mostly Cloudy
10:50 AM 50.5 °F - 32.7 °F 51% 30.28 in 15.0 mi WNW 12.7 mph - N/A   Overcast
11:50 AM 50.5 °F - 32.4 °F 50% 30.28 in 15.0 mi WNW 11.5 mph - N/A   Overcast
12:50 PM 50.7 °F - 31.5 °F 48% 30.28 in 15.0 mi WNW 11.5 mph - N/A   Overcast
1:50 PM 50.7 °F - 31.5 °F 48% 30.28 in 15.0 mi WNW 11.5 mph - N/A   Overcast
2:50 PM 51.6 °F - 30.7 °F 45% 30.28 in 15.0 mi WNW 13.8 mph - N/A   Overcast
3:50 PM 51.4 °F - 29.8 °F 44% 30.27 in 15.0 mi NW 9.2 mph - N/A   Overcast
4:50 PM 50.4 °F - 29.5 °F 45% 30.27 in 15.0 mi NW 9.2 mph - N/A   Mostly Cloudy
5:50 PM 47.1 °F - 26.1 °F 44% 30.29 in 15.0 mi NW 15.0 mph - N/A   Partly Cloudy
6:50 PM 48.2 °F - 26.6 °F 43% 30.31 in 15.0 mi WNW 18.4 mph 27.6 mph N/A   Clear
10:50 PM 43.5 °F 37.9 °F 27.3 °F 53% 30.37 in 15.0 mi West 10.4 mph - N/A   Clear
11:50 PM 39.4 °F 32.3 °F 27.0 °F 61% 30.39 in 15.0 mi West 11.5 mph - N/A   Clear